Location: Kunchanapalle
(16.4623°N, 80.6176°E)
Time: 08:54:28
(UTC+00:00)

Intelsat 5-1 Rocket - Pass Details

Date: 13 August 2020
Orbit: 312 x 7606 km, 23.9° (Epoch: 18 September)

Event Time Altitude Azimuth Distance (km) Brightness Sun altitude
Exits shadow 21:57:04 68° 204° (SSW) 1,664 3.8 -32.9°
Maximum altitude 21:58:14 75° 154° (SSE) 1,763 4.1 -32.7°
Drops below altitude 10° 22:19:46 10° 72° (ENE) 7,920 8.6 -28.1°
Sets 22:29:39 0° 72° (ENE) 10,273 9.6 -26.0°
